THOR ABLESTAR DEB, 420

Orbit data source: Space-Track

THOR ABLESTAR DEB, 420 is space debris in LEO originally from a launch on Thu, 29 Jun 1961 UTC launched from the Air Force Eastern Test Range (AFETR). Debris objects in space refer to the collection of defunct objects orbiting the Earth. Examples of debris include non-operational satellites, rocket bodies, and fragments generated from explosions, collisions, or faulty payload assembly.

Loading next visibility...
Identifier
420, 1961-015EV
Orbit
LEO
Country
Flag of USUS
Related business
Manufacturer
Unknown
Mission
Spacecraft
Bus & Motor
Unknown
Mass
Unknown
Launch date (UTC)
1961-06-29 (65 years ago)
Launch vehicle
Unknown
Launch site
Air Force Eastern Test Range (AFETR)
Object type
Payload
Rocket body
Debris
Shape & HBR
Unknown shape, 0.1 m
Radar Cross Section
Small (<0.1 m²)

Expand to show TLE details & history
Last TLE update: 11 hours ago

TLE from 11 hours ago
0 THOR ABLESTAR DEB
1   420U 61015EV  26037.00674949  .00001124  00000-0  41570-3 0  9994
2   420  66.8117 260.7529 0088580 304.9346  54.3456 14.33833898334777
Epoch: 2026-02-06T00:09Z
TLE epoch observation values (Epoch: 2026-02-06T00:09:43.155Z)
Latitude
-0.00005°
Longitude
122.17225°
Altitude
744.479 km
Speed
7.502 km/s
True Right ascension
17h 23m 00s
True Declination
0° 00' 00"
Sunlit
Object was in daylight at epoch
Visualization orbit readout
Latitude
Unknown
Longitude
Unknown
Altitude
Unknown
Speed
Unknown
Apparent Right ascension
Unknown
Apparent Declination
Unknown
Sunlit
N/A
Visualization observer readout
Local Sidereal Time
13:37:05
Azimuth
Unknown
Elevation
Unknown
Doppler factor
Unknown
Orbital elements
Apogee altitude
840.686 km
Perigee altitude
713.92 km
Semi-major axis
7,155.44 km
Eccentricity
0.00886
Inclination
66.8117°
RAAN
260.7529°
Arg. of periapsis
304.9346°
True anomaly
55.17571°
Mean anomaly
54.3456°
Eccentric anomaly
54.76012°
Mean motion
3.58582 °/min
Orbital period
100.4 mins
BSTAR
0.0004157
Loading maneuver chart data...
Computing Atmospheric mass density...

Documentation

Showing up to 5 results
|